[[{"header":{"parameterUnit":"m.s-1","parameterCategory":1,"la1":30.2991,"la2":30.254,"lo1":-89.0895,"lo2":-89.0444,"dy":0.0017,"dx":0.0017,"nx":28,"ny":28,"refTime":"2025-08-09T21:00:00:Z","depth":0,"parameterNumber":2,"parameterNumberName":"U-component_of_WINDS"},"data":[0,0,0,0,0,0,0,0,0,0,0,0,0,0,0,0,0,0,0,0,0,0,0,0,0,0,0,0,0,0,0,0,0,0,0,0,0,0,0,0,0,0,0,0,0,0,0,0,0,0,0,0,0,0,0,0,0,0,-1.3797,-1.3795,0,-1.3684,-1.3683,-1.3682,-1.3557,-1.3555,-1.3553,-1.3551,-1.3436,-1.3435,-1.3434,0,0,0,0,0,0,0,0,0,0,0,0,0,-1.3904,-1.3903,-1.3797,-1.3795,-1.3794,-1.3685,-1.3683,-1.3682,-1.3557,-1.3555,-1.3553,-1.3551,-1.3437,-1.3435,-1.3433,0,0,0,0,0,0,0,0,0,0,0,0,0,-1.3832,-1.3903,-1.3797,-1.3719,-1.371,-1.3685,-1.3683,-1.3681,-1.3558,-1.3555,-1.3552,-1.3549,-1.3437,-1.3435,-1.3433,-1.3476,0,0,-1.3427,-1.3426,0,0,0,0,0,0,0,0,-1.3836,-1.3828,-1.3732,-1.3724,-1.3715,-1.3632,-1.3679,-1.3612,-1.3558,-1.3616,-1.3551,-1.3548,-1.3504,-1.3496,-1.3481,-1.347,-1.3465,-1.3427,-1.3426,-1.3425,-1.3424,0,0,0,0,0,0,0,-1.3841,-1.3832,-1.3752,-1.373,-1.372,-1.369,-1.3676,-1.3666,-1.3576,-1.361,-1.3601,-1.359,-1.3498,-1.3483,-1.3477,-1.3464,-1.3427,-1.3425,-1.3424,-1.3423,-1.3485,-1.3487,0,0,0,0,0,0,-1.3858,-1.3837,-1.3756,-1.3749,-1.377,-1.369,-1.3675,-1.3661,-1.3576,-1.356,-1.3592,-1.3584,-1.3488,-1.348,-1.3473,-1.3518,-1.3425,-1.3423,-1.3422,-1.3482,-1.3485,-1.3488,0,0,0,0,0,0,-1.3861,-1.3852,-1.376,-1.379,-1.3776,-1.3691,-1.3677,-1.366,-1.3645,-1.3562,-1.3546,-1.3593,-1.3485,-1.3476,-1.3476,-1.3512,-1.3422,-1.342,-1.3478,-1.3483,-1.3487,-1.3609,0,0,0,0,0,0,-1.3864,-1.3854,-1.3868,-1.3792,-1.3775,-1.3766,-1.3679,-1.366,-1.3642,-1.363,-1.3558,-1.3544,-1.3483,-1.348,-1.3474,-1.3508,-1.3418,-1.3475,-1.348,-1.3485,-1.3601,-1.3617,-1.363,0,0,0,0,0,-1.3869,-1.3907,-1.387,-1.3861,-1.3792,-1.3768,-1.3759,-1.3687,-1.3645,-1.366,-1.3607,-1.3546,-1.351,-1.3481,-1.3474,-1.3507,-1.3472,-1.3479,-1.3485,-1.3595,-1.3614,-1.363,0,0,0,0,0,0,-1.3989,-1.3895,-1.3853,-1.3867,-1.3827,-1.3747,-1.3763,-1.3709,-1.368,-1.367,-1.3583,-1.3568,-1.358,-1.3543,-1.3514,-1.3545,-1.3482,-1.3488,-1.3568,-1.3586,-1.36,-1.3609,-1.3417,0,0,0,0,0,-1.4018,-1.4006,-1.3924,-1.3945,-1.3927,-1.3849,-1.3836,-1.3785,-1.3739,-1.3721,-1.3668,-1.3627,-1.3605,-1.3593,-1.3569,-1.3596,-1.3579,-1.3615,-1.363,-1.3642,-1.3648,-1.3661,-1.3676,-1.351,-1.3509,-1.3509,0,0,-1.4076,-1.4023,-1.4021,-1.3968,-1.393,-1.3921,-1.3835,-1.3828,-1.3821,-1.372,-1.3718,-1.3678,-1.3626,-1.364,-1.3644,-1.361,-1.369,-1.365,-1.3661,-1.3659,-1.3669,-1.3685,-1.3699,-1.3514,-1.3513,-1.3512,0,0,-1.4177,-1.4136,-1.4149,-1.4114,-1.4059,-1.4007,-1.4011,-1.3939,-1.3909,-1.3906,-1.3831,-1.3821,-1.3786,-1.3753,-1.3731,-1.3823,-1.3767,-1.3818,-1.3893,-1.3907,-1.392,-1.3932,-1.3966,-1.3979,-1.3824,-1.3824,-1.3824,0,-1.4256,-1.4239,-1.4163,-1.4161,-1.4141,-1.405,-1.4064,-1.4033,-1.3973,-1.3962,-1.3925,-1.3881,-1.384,-1.3846,-1.3869,-1.3854,-1.3856,-1.3825,-1.3925,-1.3935,-1.3945,-1.3976,-1.3989,-1.3831,-1.383,-1.3829,-1.3829,0,-1.434,-1.4329,-1.4347,-1.4292,-1.4274,-1.428,-1.4206,-1.4196,-1.4148,-1.4101,-1.41,-1.4047,-1.4012,-1.4009,-1.3961,-1.4009,-1.399,-1.3941,-1.3876,-1.3968,-1.3997,-1.4008,-1.384,-1.3838,-1.3836,-1.3834,0,0,-1.4512,-1.4417,-1.4425,-1.44,-1.4334,-1.4324,-1.4328,-1.4294,-1.4288,-1.425,-1.4251,-1.4226,-1.418,-1.4156,-1.4103,-1.4115,-1.4194,-1.4064,-1.4061,-1.4091,-1.4246,-1.4285,-1.43,-1.4156,-1.4158,-1.416,-1.4251,0,-1.4603,-1.4602,-1.4535,-1.4553,-1.4544,-1.4459,-1.4462,-1.4422,-1.4379,-1.4364,-1.4316,-1.43,-1.424,-1.4225,-1.4233,-1.4183,-1.4224,-1.4175,-1.4157,-1.4157,-1.4174,-1.4314,-1.4354,-1.4443,-1.4261,-1.4263,-1.4264,0,-1.4707,-1.4677,-1.4695,-1.463,-1.4624,-1.4627,-1.4592,-1.4579,-1.4533,-1.4501,-1.4476,-1.4417,-1.4416,-1.4355,-1.4354,-1.4322,-1.4311,-1.4286,-1.4287,-1.4283,-1.4217,-1.4315,-1.4469,-1.4483,-1.4281,-1.4279,-1.4278,0,-1.4833,-1.4797,-1.4803,-1.4784,-1.4708,-1.4714,-1.4682,-1.4633,-1.4618,-1.4588,-1.4577,-1.4547,-1.4531,-1.4509,-1.4444,-1.4406,-1.4451,-1.4384,-1.4425,-1.4427,-1.4438,-1.4439,-1.4594,-1.4431,-1.4431,-1.443,-1.443,0,-1.4941,-1.4956,-1.4859,-1.4863,-1.4878,-1.4801,-1.4818,-1.4778,-1.4736,-1.4732,-1.4656,-1.4654,-1.4568,-1.4556,-1.4505,-1.4513,-1.4506,-1.4481,-1.4467,-1.4488,-1.4491,-1.4479,-1.4472,-1.4434,-1.4433,-1.4432,-1.4432,0,-1.5084,-1.5019,-1.5021,-1.495,-1.4933,-1.4947,-1.4886,-1.4888,-1.484,-1.4836,-1.4831,-1.4757,-1.4739,-1.4673,-1.4638,-1.4604,-1.4629,-1.4602,-1.4645,-1.4636,-1.4681,-1.4679,-1.4835,-1.4852,-1.4678,-1.468,-1.4681,0,-1.5157,-1.5166,-1.5097,-1.5089,-1.5062,-1.5049,-1.5034,-1.4959,-1.4947,-1.4897,-1.4905,-1.4881,-1.4859,-1.4835,-1.4779,-1.4753,-1.4725,-1.4782,-1.4721,-1.4742,-1.4728,-1.4728,-1.473,-1.4795,-1.4798,-1.48,-1.4801,0,-1.5294,-1.5263,-1.5243,-1.5214,-1.5198,-1.5171,-1.514,-1.5138,-1.5055,-1.5045,-1.5026,-1.5009,-1.4976,-1.4954,-1.492,-1.4888,-1.4832,-1.4821,-1.4829,-1.4851,-1.4876,-1.4864,-1.4682,-1.4818,-1.4816,-1.4815,-1.4814,-1.4813,-1.5405,-1.541,-1.5363,-1.5345,-1.5314,-1.5287,-1.5285,-1.5239,-1.5222,-1.519,-1.5147,-1.5135,-1.509,-1.5038,-1.5011,-1.5001,-1.497,-1.4981,-1.4984,-1.4989,-1.5,-1.4877,-1.4995,-1.4994,-1.4994,-1.4993,-1.4993,0,-1.5539,-1.5505,-1.5489,-1.5449,-1.5435,-1.5384,-1.5347,-1.5339,-1.5329,-1.5293,-1.5273,-1.5254,-1.5233,-1.5176,-1.515,-1.5153,-1.5127,-1.5149,-1.5148,-1.5142,-1.5029,-1.5025,-1.5171,-1.5171,-1.5171,-1.5171,-1.5171,-1.5171,-1.5608,-1.5615,-1.5578,-1.557,-1.5535,-1.5523,-1.5507,-1.5482,-1.5453,-1.5435,-1.5418,-1.5381,-1.5337,-1.5307,-1.5287,-1.5271,-1.5265,-1.5296,-1.5272,-1.5167,-1.515,-1.5134,-1.5129,-1.5295,-1.5296,-1.5386,-1.5387,-1.5388]},{"header":{"parameterUnit":"m.s-1","parameterCategory":1,"la1":30.2991,"la2":30.254,"lo1":-89.0895,"lo2":-89.0444,"dy":0.0017,"dx":0.0017,"nx":28,"ny":28,"refTime":"2025-08-09T21:00:00:Z","depth":0,"parameterNumber":3,"parameterNumberName":"V-component_of_WINDS"},"data":[0,0,0,0,0,0,0,0,0,0,0,0,0,0,0,0,0,0,0,0,0,0,0,0,0,0,0,0,0,0,0,0,0,0,0,0,0,0,0,0,0,0,0,0,0,0,0,0,0,0,0,0,0,0,0,0,0,0,0.6199,0.6198,0,0.6098,0.6097,0.6095,0.6068,0.6069,0.607,0.607,0.5964,0.596,0.5957,0,0,0,0,0,0,0,0,0,0,0,0,0,0.6366,0.6363,0.6199,0.6197,0.6196,0.6098,0.6097,0.6095,0.6068,0.6069,0.607,0.6071,0.5965,0.5961,0.5957,0,0,0,0,0,0,0,0,0,0,0,0,0,0.6282,0.6362,0.6199,0.6171,0.6168,0.6098,0.6096,0.6095,0.6068,0.6069,0.607,0.6071,0.5966,0.5961,0.5956,0.5906,0,0,0.594,0.5938,0,0,0,0,0,0,0,0,0.6287,0.6276,0.6176,0.6173,0.6169,0.6097,0.6116,0.6031,0.6068,0.6106,0.607,0.6071,0.6007,0.5998,0.5977,0.5901,0.5896,0.594,0.5937,0.5935,0.5933,0,0,0,0,0,0,0,0.6293,0.628,0.6159,0.6175,0.617,0.6163,0.6152,0.61,0.6052,0.6103,0.61,0.6089,0.6005,0.5982,0.5975,0.5895,0.594,0.5935,0.5932,0.593,0.5773,0.5772,0,0,0,0,0,0,0.6304,0.6285,0.6162,0.6156,0.6232,0.6159,0.6147,0.6119,0.6053,0.6044,0.6088,0.6088,0.5991,0.5981,0.5971,0.5908,0.5935,0.593,0.5927,0.5774,0.5773,0.5772,0,0,0,0,0,0,0.6308,0.6293,0.6166,0.622,0.6203,0.6155,0.6124,0.6116,0.6094,0.6042,0.6033,0.6074,0.5991,0.5978,0.5923,0.5904,0.5928,0.5923,0.5776,0.5774,0.5772,0.5782,0,0,0,0,0,0,0.6312,0.6295,0.6275,0.622,0.62,0.612,0.6123,0.6114,0.6085,0.6084,0.6026,0.6018,0.5991,0.5931,0.5918,0.5897,0.5919,0.5777,0.5775,0.5773,0.5783,0.5781,0.5779,0,0,0,0,0,0.6319,0.6281,0.6275,0.626,0.6176,0.6119,0.6108,0.6078,0.6084,0.6064,0.6031,0.602,0.5909,0.5925,0.591,0.5888,0.5778,0.5775,0.5773,0.5784,0.5781,0.5779,0,0,0,0,0,0,0.6334,0.6273,0.6265,0.6209,0.617,0.6115,0.6088,0.6076,0.6034,0.6034,0.5999,0.5986,0.5933,0.5905,0.5925,0.5837,0.5843,0.5838,0.5856,0.5853,0.5851,0.5858,0.5915,0,0,0,0,0,0.6332,0.6292,0.624,0.6195,0.6176,0.6136,0.611,0.6091,0.6049,0.6031,0.5994,0.5953,0.5908,0.588,0.5836,0.578,0.5766,0.5757,0.5755,0.5754,0.5749,0.5717,0.5712,0.5764,0.5764,0.5764,0,0,0.6324,0.6286,0.6263,0.6198,0.6165,0.6124,0.6122,0.6078,0.6047,0.6024,0.597,0.5942,0.5893,0.5837,0.581,0.5812,0.5732,0.5751,0.575,0.5745,0.5714,0.5709,0.5705,0.5762,0.5762,0.5763,0,0,0.6291,0.6258,0.6217,0.6185,0.6137,0.611,0.6101,0.6048,0.6029,0.5974,0.5957,0.5919,0.5844,0.5809,0.5782,0.5738,0.5726,0.5725,0.5713,0.5683,0.5679,0.5675,0.5659,0.5653,0.5721,0.5721,0.5721,0,0.6288,0.6225,0.6198,0.6155,0.6127,0.6107,0.6065,0.6035,0.5974,0.5954,0.5958,0.5864,0.5829,0.5765,0.5755,0.5734,0.5721,0.573,0.5682,0.5678,0.5674,0.5658,0.5652,0.5721,0.5721,0.5721,0.5721,0,0.6224,0.6182,0.6154,0.6098,0.6067,0.6025,0.599,0.5962,0.5947,0.592,0.5865,0.5824,0.5772,0.5755,0.5739,0.5689,0.5692,0.5689,0.5695,0.567,0.5654,0.5648,0.5721,0.5721,0.5721,0.5721,0,0,0.6194,0.6125,0.6115,0.6089,0.6035,0.6001,0.5959,0.591,0.5886,0.5845,0.5808,0.5746,0.5744,0.5713,0.5693,0.5667,0.5634,0.5667,0.5666,0.5662,0.5576,0.5577,0.5571,0.5627,0.5626,0.5625,0.558,0,0.6153,0.6077,0.6051,0.5988,0.5948,0.593,0.5893,0.5856,0.583,0.5792,0.5764,0.572,0.5721,0.5703,0.5676,0.5644,0.5616,0.5647,0.5591,0.5589,0.5602,0.5563,0.5563,0.5523,0.5574,0.5573,0.5572,0,0.6093,0.6053,0.5986,0.5938,0.5921,0.5888,0.5841,0.5806,0.5763,0.5747,0.5714,0.5697,0.5651,0.5661,0.5598,0.5619,0.5595,0.5576,0.5574,0.5566,0.5578,0.5552,0.5509,0.5503,0.5562,0.5563,0.5564,0,0.6077,0.6007,0.5958,0.5936,0.5879,0.5857,0.5832,0.5791,0.5763,0.5722,0.5704,0.5658,0.5632,0.5597,0.5568,0.5578,0.5507,0.5515,0.5491,0.5492,0.5475,0.5476,0.5426,0.5462,0.5462,0.5463,0.5463,0,0.6032,0.5991,0.595,0.5919,0.5874,0.5846,0.5801,0.5775,0.5739,0.5702,0.5684,0.565,0.5615,0.5577,0.5554,0.5504,0.5493,0.5478,0.5472,0.5478,0.548,0.5461,0.5462,0.5461,0.5461,0.5462,0.5462,0,0.6005,0.5976,0.5921,0.5873,0.586,0.5828,0.5786,0.5756,0.5731,0.5686,0.5673,0.5634,0.5588,0.5556,0.5497,0.5481,0.5428,0.5423,0.5442,0.5439,0.5417,0.5419,0.5351,0.5341,0.5386,0.5385,0.5385,0,0.5977,0.5946,0.5895,0.587,0.5846,0.5806,0.5778,0.575,0.5722,0.5672,0.5648,0.5601,0.5562,0.5489,0.5455,0.541,0.5403,0.5382,0.5395,0.5403,0.5401,0.5402,0.5399,0.5379,0.5379,0.5379,0.5379,0,0.5931,0.5919,0.588,0.5836,0.5804,0.5768,0.5732,0.5713,0.5678,0.5647,0.5601,0.5571,0.5512,0.5465,0.5417,0.5391,0.5378,0.5375,0.5367,0.5372,0.5385,0.5377,0.5435,0.5376,0.5376,0.5377,0.5377,0.5377,0.5902,0.5873,0.5833,0.5791,0.5762,0.5729,0.5698,0.5671,0.5632,0.5582,0.5568,0.552,0.5479,0.5413,0.5387,0.5348,0.5349,0.5338,0.5335,0.5332,0.5331,0.5393,0.5339,0.5339,0.5339,0.5339,0.5339,0,0.5853,0.5828,0.5789,0.574,0.5707,0.5701,0.5661,0.5633,0.5592,0.5555,0.5518,0.5465,0.5421,0.5384,0.5338,0.5314,0.5307,0.5303,0.5303,0.5297,0.5333,0.5344,0.5309,0.5309,0.5309,0.5309,0.5309,0.5309,0.5824,0.5776,0.5759,0.5696,0.567,0.5624,0.5601,0.5571,0.5542,0.5484,0.5448,0.5425,0.5388,0.534,0.5299,0.5289,0.5272,0.5269,0.5258,0.5291,0.5295,0.5298,0.5308,0.5266,0.5266,0.5225,0.5224,0.5224]}]]